Flag for India Weather past 2 weeks in Ganganagar, Rajasthan, India

Now
43 °F

Fog.


Feels Like: 43 °F
Forecast: 42 / 67 °F
Wind: No wind

Location: Lahore Airport

Current Time: Dec 28, 2014 at 4:32:30 AM

Latest Report: Dec 28, 2014 at 3:55 AM


Visibility: 0 mi

Pressure: 30.12 "Hg

Humidity: 100%

Dew point: 43 °F

Location of GanganagarLocation

Historic Weather in Ganganagar — Graph

°F

Ganganagar temperature yesterday

Maximum temperature yesterday: 50 °F (at 2:30 PM)
Minimum temperature yesterday: 39 °F (at 5:25 AM)
Average temperature yesterday: 45 °F

Past Weeks' High & Low Weather Summary

 TemperatureHumidityPressure
High66 °F (Dec 15, 2:55 PM)100% (Dec 17, 7:25 AM)30.27 "Hg (Dec 17, 7:25 AM)
Low34 °F (Dec 25, 6:55 PM)40% (Dec 13, 3:30 PM)29.59 "Hg (Dec 20, 7:30 AM)
Average49 °F84%30.11 "Hg
* Reported Dec 13 2:55 AM — Dec 28 3:25 AM, Ganganagar, Weather by CustomWeather, © 2014

Note: Actual official high and low records may vary slightly from our data, if they occured in-between our weather recording intervals... More about our weather records

Advertising

Ganganagar weather history for previous 24 hours

 ConditionsComfort  
Time TempWeatherWind HumidityBarometerVisibility
3:25 AM
Dec 28
43 °FFog.No wind100%30.12 "Hg0 mi
2:55 AM43 °FFog.No wind100%30.12 "Hg0 mi
2:25 AM43 °FFog.No wind100%30.12 "Hg0 mi
1:55 AM43 °FFog.No wind100%30.12 "Hg0 mi
1:25 AM43 °FFog.No wind100%30.12 "Hg0 mi
12:55 AM43 °FFog.No wind100%30.12 "Hg0 mi
12:25 AM43 °FFog.3 mph100%30.12 "Hg0 mi
11:55 PM
Dec 27
45 °FFog.No wind100%30.12 "Hg0 mi
11:25 PM45 °FFog.3 mph100%30.12 "Hg0 mi
10:55 PM45 °FFog.No wind100%30.12 "Hg0 mi
10:25 PM45 °FFog.5 mph100%30.12 "Hg0 mi
9:55 PM45 °FFog.5 mph100%30.12 "Hg0 mi
9:25 PM45 °FFog.5 mph100%30.12 "Hg0 mi
8:55 PM46 °FFog.6 mph87%30.12 "Hg1 mi
8:25 PM46 °FFog.3 mph87%30.12 "Hg1 mi
7:55 PM46 °FFog.6 mph93%30.09 "Hg1 mi
7:25 PM46 °FFog.6 mph93%30.09 "Hg1 mi
6:55 PM48 °FFog.6 mph94%30.09 "Hg1 mi
6:25 PM48 °FFog.7 mph94%30.07 "Hg1 mi
5:25 PM50 °FFog.5 mph88%30.07 "Hg1 mi
4:55 PM50 °FFog.6 mph88%30.04 "Hg1 mi
4:25 PM50 °FFog.5 mph88%30.04 "Hg1 mi
3:55 PM50 °FFog.5 mph82%30.04 "Hg1 mi
3:25 PM50 °FFog.5 mph88%30.04 "Hg1 mi
3:00 PM50 °FFog.5 mph94%30.04 "Hg1 mi
2:30 PM50 °FFog.3 mph94%30.04 "Hg1 mi
1:55 PM48 °FFog.3 mph94%30.04 "Hg1 mi
1:30 PM46 °FFog.5 mph93%30.04 "Hg1 mi
12:55 PM45 °FFog.5 mph100%30.04 "Hg1 mi
12:25 PM45 °FFog.3 mph100%30.07 "Hg1 mi
11:55 AM45 °FFog.3 mph100%30.07 "Hg1 mi
11:25 AM45 °FFog.No wind100%30.07 "Hg0 mi
10:55 AM43 °FFog.No wind100%30.07 "Hg0 mi
10:25 AM43 °FFog.5 mph100%30.07 "Hg0 mi
9:55 AM43 °FFog.6 mph100%30.07 "Hg0 mi
8:55 AM41 °FFog.5 mph100%30.04 "Hg0 mi
8:25 AM41 °FFog.5 mph100%30.04 "Hg0 mi
7:55 AM39 °FFog.5 mph100%30.01 "Hg0 mi
6:55 AM39 °FFog.3 mph100%29.98 "Hg0 mi
6:25 AM39 °FFog.3 mph100%29.98 "Hg0 mi
5:25 AM39 °FFog.No wind100%29.98 "Hg0 mi
4:55 AM41 °FFog.No wind100%29.95 "Hg0 mi
4:25 AM41 °FFog.No wind100%29.95 "Hg0 mi
Weather by CustomWeather, © 2014

See weather overviewHow to use our weather pages